TimeEST,TemperatureF,Dew PointF,Humidity,Sea Level PressureIn,VisibilityMPH,Wind Direction,Wind SpeedMPH,Gust SpeedMPH,PrecipitationIn,Events,Conditions,WindDirDegrees,DateUTC
12:19 AM,51.8,46.4,82,30.42,10.0,NE,12.7,24.2,N/A,,Overcast,40,2012-11-19 05:19:00
12:53 AM,53.1,46.9,80,30.40,10.0,NE,12.7,19.6,N/A,,Overcast,40,2012-11-19 05:53:00
1:53 AM,53.1,46.9,80,30.39,10.0,NNE,12.7,21.9,N/A,,Overcast,30,2012-11-19 06:53:00
2:53 AM,52.0,46.9,83,30.38,10.0,NE,12.7,21.9,N/A,,Overcast,40,2012-11-19 07:53:00
3:53 AM,52.0,48.0,86,30.37,10.0,NE,16.1,21.9,N/A,,Overcast,40,2012-11-19 08:53:00
4:53 AM,52.0,48.0,86,30.36,10.0,NNE,13.8,24.2,N/A,,Overcast,30,2012-11-19 09:53:00
5:53 AM,52.0,48.0,86,30.36,10.0,NNE,13.8,24.2,N/A,,Overcast,30,2012-11-19 10:53:00
6:51 AM,51.8,48.2,88,30.36,10.0,NNE,15.0,24.2,N/A,,Overcast,30,2012-11-19 11:51:00
6:53 AM,52.0,48.0,86,30.36,10.0,NNE,13.8,24.2,N/A,,Overcast,30,2012-11-19 11:53:00
7:53 AM,52.0,48.0,86,30.36,10.0,NNE,13.8,21.9,N/A,,Overcast,30,2012-11-19 12:53:00
8:53 AM,52.0,48.0,86,30.35,9.0,NNE,15.0,20.7,N/A,,Overcast,20,2012-11-19 13:53:00
9:53 AM,52.0,48.9,89,30.34,8.0,NNE,11.5,23.0,N/A,,Overcast,30,2012-11-19 14:53:00
10:49 AM,51.8,48.2,88,30.32,9.0,NNE,12.7,21.9,N/A,,Overcast,20,2012-11-19 15:49:00
10:53 AM,52.0,48.9,89,30.32,9.0,NNE,13.8,21.9,N/A,,Overcast,20,2012-11-19 15:53:00
11:53 AM,51.1,48.0,89,30.29,8.0,NNE,16.1,23.0,N/A,,Overcast,20,2012-11-19 16:53:00
12:53 PM,51.1,48.0,89,30.27,9.0,NNE,15.0,25.3,N/A,,Overcast,20,2012-11-19 17:53:00
1:53 PM,51.1,46.9,86,30.26,9.0,NNE,16.1,23.0,N/A,,Overcast,30,2012-11-19 18:53:00
2:53 PM,50.0,46.9,89,30.25,9.0,NNE,13.8,23.0,N/A,,Overcast,20,2012-11-19 19:53:00
3:53 PM,50.0,46.0,86,30.25,10.0,North,13.8,20.7,N/A,,Overcast,10,2012-11-19 20:53:00
4:53 PM,50.0,46.9,89,30.25,10.0,NNE,17.3,23.0,N/A,,Overcast,30,2012-11-19 21:53:00
5:53 PM,50.0,46.9,89,30.25,10.0,NNE,11.5,26.5,N/A,,Overcast,20,2012-11-19 22:53:00
6:53 PM,50.0,46.9,89,30.23,10.0,NNE,16.1,23.0,N/A,,Overcast,20,2012-11-19 23:53:00
7:09 PM,50.0,46.4,87,30.23,10.0,NNE,13.8,26.5,N/A,,Overcast,30,2012-11-20 00:09:00
7:53 PM,50.0,46.9,89,30.22,10.0,NNE,13.8,21.9,N/A,,Overcast,30,2012-11-20 00:53:00
8:53 PM,50.0,46.9,89,30.21,9.0,NNE,11.5,24.2,N/A,,Overcast,30,2012-11-20 01:53:00
9:53 PM,50.0,46.9,89,30.21,9.0,NNE,12.7,20.7,N/A,,Overcast,30,2012-11-20 02:53:00
10:53 PM,50.0,46.9,89,30.19,9.0,NNE,13.8,19.6,N/A,,Overcast,30,2012-11-20 03:53:00
11:53 PM,50.0,48.0,93,30.17,9.0,NNE,10.4,-,N/A,,Overcast,30,2012-11-20 04:53:00